This is the latest recevied weather packets stored in our database for station/object N6WDO. If no packets are shown the sender has not sent any weather packets the latest 10 day(s).
| Time | Temp. | Humidity | Pressure | Rain* | Wind** | Luminosity | Snow |
|---|---|---|---|---|---|---|---|
| 1788141057 | 83° F | 31% | 760.2 mmHg | 0 in | - | 24 W/m² | - |
| 1788140752 | 84° F | 31% | 760.3 mmHg | 0 in | - | 26 W/m² | - |
| 1788140447 | 84° F | 30% | 760.4 mmHg | 0 in | - | 28 W/m² | - |
| 1788140143 | 85° F | 30% | 760.3 mmHg | 0 in | - | 32 W/m² | - |
| 1788139838 | 85° F | 30% | 760.3 mmHg | 0 in | - | 35 W/m² | - |
| 1788139533 | 85° F | 30% | 760.4 mmHg | 0 in | - | 37 W/m² | - |
| 1788139233 | 86° F | 30% | 760.3 mmHg | 0 in | - | 40 W/m² | - |
| 1788138932 | 86° F | 29% | 760.4 mmHg | 0 in | - | 42 W/m² | - |
| 1788138628 | 86° F | 29% | 760.3 mmHg | 0 in | - | 44 W/m² | - |
| 1788138323 | 86° F | 29% | 760.3 mmHg | 0 in | - | 46 W/m² | - |
| 1788138020 | 87° F | 30% | 760.4 mmHg | 0 in | - | 49 W/m² | - |
| 1788137719 | 87° F | 29% | 760.5 mmHg | 0 in | - | 51 W/m² | - |
| 1788137419 | 87° F | 30% | 760.5 mmHg | 0 in | - | 59 W/m² | - |
| 1788137116 | 88° F | 29% | 760.3 mmHg | 0 in | - | 55 W/m² | - |
| 1788136816 | 87° F | 30% | 760.5 mmHg | 0 in | - | 57 W/m² | - |
| 1788136512 | 88° F | 29% | 760.5 mmHg | 0 in | - | 58 W/m² | - |
| 1788136207 | 88° F | 29% | 760.5 mmHg | 0 in | - | 58 W/m² | - |
| 1788135906 | 88° F | 30% | 760.3 mmHg | 0 in | - | 61 W/m² | - |
| 1788135601 | 88° F | 29% | 760.5 mmHg | 0 in | - | 63 W/m² | - |
| 1788135296 | 88° F | 30% | 760.5 mmHg | 0 in | - | 66 W/m² | - |
| 1788134993 | 88° F | 30% | 760.5 mmHg | 0 in | - | 85 W/m² | - |
| 1788134689 | 88° F | 30% | 760.5 mmHg | 0 in | - | 74 W/m² | - |
| 1788134386 | 88° F | 31% | 760.6 mmHg | 0 in | - | 102 W/m² | - |
| 1788134082 | 88° F | 31% | 760.6 mmHg | 0 in | - | 152 W/m² | - |
| 1788133777 | 89° F | 30% | 760.3 mmHg | 0 in | - | 138 W/m² | - |
* Rain latest hour (hover to see other rain measurements)
** Current wind speed in m/s (hover to see current wind gust speed)